Year,Month,Day,Hour,Minute,Value (Times are PST for temperature in C)
2015,06,07,00,00,17.90
2015,06,07,00,01,17.80
2015,06,07,00,02,17.80
2015,06,07,00,03,17.80
2015,06,07,00,04,17.80
2015,06,07,00,05,17.70
2015,06,07,00,06,17.70
2015,06,07,00,07,17.70
2015,06,07,00,08,17.60
2015,06,07,00,09,17.60
2015,06,07,00,10,17.60
2015,06,07,00,11,17.50
2015,06,07,00,12,17.50
2015,06,07,00,13,17.40
2015,06,07,00,14,17.40
2015,06,07,00,15,17.40
2015,06,07,00,16,17.30
2015,06,07,00,17,17.30
2015,06,07,00,18,17.30
2015,06,07,00,19,17.30
2015,06,07,00,20,17.20
2015,06,07,00,21,17.20
2015,06,07,00,22,17.20
2015,06,07,00,23,17.10
2015,06,07,00,24,17.10
2015,06,07,00,25,17.10
2015,06,07,00,26,17.10
2015,06,07,00,27,17.10
2015,06,07,00,28,17.10
2015,06,07,00,29,17.10
2015,06,07,00,30,17.00
2015,06,07,00,31,17.00
2015,06,07,00,32,17.00
2015,06,07,00,33,17.00
2015,06,07,00,34,17.00
2015,06,07,00,35,17.00
2015,06,07,00,36,17.00
2015,06,07,00,37,17.00
2015,06,07,00,38,17.00
2015,06,07,00,39,17.00
2015,06,07,00,40,17.00
2015,06,07,00,41,16.90
2015,06,07,00,42,16.90
2015,06,07,00,43,16.90
2015,06,07,00,44,16.90
2015,06,07,00,45,16.80
2015,06,07,00,46,16.80
2015,06,07,00,47,16.80
2015,06,07,00,48,16.80
2015,06,07,00,49,16.80
2015,06,07,00,50,16.70
2015,06,07,00,51,16.70
2015,06,07,00,52,16.70
2015,06,07,00,53,16.70
2015,06,07,00,54,16.70
2015,06,07,00,55,16.70
2015,06,07,00,56,16.70
2015,06,07,00,57,16.70
2015,06,07,00,58,16.70
2015,06,07,00,59,16.60
2015,06,07,01,00,16.60
2015,06,07,01,01,16.60
2015,06,07,01,02,16.60
2015,06,07,01,03,16.60
2015,06,07,01,04,16.40
2015,06,07,01,05,16.40
2015,06,07,01,06,16.40
2015,06,07,01,07,16.40
2015,06,07,01,08,16.40
2015,06,07,01,09,16.40
2015,06,07,01,10,16.40
2015,06,07,01,11,16.40
2015,06,07,01,12,16.40
2015,06,07,01,13,16.40
2015,06,07,01,14,16.40
2015,06,07,01,15,16.40
2015,06,07,01,16,16.40
2015,06,07,01,17,16.40
2015,06,07,01,18,16.30
2015,06,07,01,19,16.30
2015,06,07,01,20,16.30
2015,06,07,01,21,16.30
2015,06,07,01,22,16.30
2015,06,07,01,23,16.20
2015,06,07,01,24,16.20
2015,06,07,01,25,16.20
2015,06,07,01,26,16.20
2015,06,07,01,27,16.10
2015,06,07,01,28,16.10
2015,06,07,01,29,16.10
2015,06,07,01,30,16.10
2015,06,07,01,31,16.10
2015,06,07,01,32,16.10
2015,06,07,01,33,16.10
2015,06,07,01,34,16.10
2015,06,07,01,35,16.10
2015,06,07,01,36,16.00
2015,06,07,01,37,15.90
2015,06,07,01,38,15.90
2015,06,07,01,39,15.90
2015,06,07,01,40,15.90
2015,06,07,01,41,15.90
2015,06,07,01,42,15.90
2015,06,07,01,43,15.90
2015,06,07,01,44,15.90
2015,06,07,01,45,15.90
2015,06,07,01,46,15.90
2015,06,07,01,47,15.90
2015,06,07,01,48,15.80
2015,06,07,01,49,15.80
2015,06,07,01,50,15.80
2015,06,07,01,51,15.80
2015,06,07,01,52,15.80
2015,06,07,01,53,15.80
2015,06,07,01,54,15.80
2015,06,07,01,55,15.80
2015,06,07,01,56,15.80
2015,06,07,01,57,15.80
2015,06,07,01,58,15.80
2015,06,07,01,59,15.80
2015,06,07,02,00,15.70
2015,06,07,02,01,15.70
2015,06,07,02,02,15.70
2015,06,07,02,03,15.70
2015,06,07,02,04,15.70
2015,06,07,02,05,15.70
2015,06,07,02,06,15.70
2015,06,07,02,07,15.70
2015,06,07,02,08,15.70
2015,06,07,02,09,15.70
2015,06,07,02,10,15.70
2015,06,07,02,11,15.70
2015,06,07,02,12,15.70
2015,06,07,02,13,15.70
2015,06,07,02,14,15.60
2015,06,07,02,15,15.60
2015,06,07,02,16,15.60
2015,06,07,02,17,15.50
2015,06,07,02,18,15.50
2015,06,07,02,19,15.50
2015,06,07,02,20,15.40
2015,06,07,02,21,15.40
2015,06,07,02,22,15.40
2015,06,07,02,23,15.30
2015,06,07,02,24,15.30
2015,06,07,02,25,15.30
2015,06,07,02,26,15.30
2015,06,07,02,27,15.30
2015,06,07,02,28,15.30
2015,06,07,02,29,15.30
2015,06,07,02,30,15.30
2015,06,07,02,31,15.20
2015,06,07,02,32,15.20
2015,06,07,02,33,15.20
2015,06,07,02,34,15.20
2015,06,07,02,35,15.20
2015,06,07,02,36,15.30
2015,06,07,02,37,15.30
2015,06,07,02,38,15.20
2015,06,07,02,39,15.20
2015,06,07,02,40,15.20
2015,06,07,02,41,15.20
2015,06,07,02,42,15.20
2015,06,07,02,43,15.20
2015,06,07,02,44,15.20
2015,06,07,02,45,15.20
2015,06,07,02,46,15.20
2015,06,07,02,47,15.20
2015,06,07,02,48,15.20
2015,06,07,02,49,15.10
2015,06,07,02,50,15.10
2015,06,07,02,51,15.10
2015,06,07,02,52,15.10
2015,06,07,02,53,15.10
2015,06,07,02,54,15.10
2015,06,07,02,55,15.00
2015,06,07,02,56,15.00
2015,06,07,02,57,15.00
2015,06,07,02,58,14.90
2015,06,07,02,59,14.90
2015,06,07,03,00,14.90
2015,06,07,03,01,14.90
2015,06,07,03,02,14.80
2015,06,07,03,03,14.80
2015,06,07,03,06,14.80
2015,06,07,03,07,14.80
2015,06,07,03,08,14.70
2015,06,07,03,09,14.70
2015,06,07,03,10,14.60
2015,06,07,03,11,14.60
2015,06,07,03,12,14.50
2015,06,07,03,13,14.50
2015,06,07,03,14,14.50
2015,06,07,03,15,14.40
2015,06,07,03,16,14.40
2015,06,07,03,17,14.40
2015,06,07,03,18,14.30
2015,06,07,03,19,14.20
2015,06,07,03,20,14.20
2015,06,07,03,21,14.20
2015,06,07,03,22,14.20
2015,06,07,03,23,14.10
2015,06,07,03,24,14.10
2015,06,07,03,25,14.00
2015,06,07,03,26,14.00
2015,06,07,03,27,14.00
2015,06,07,03,28,13.90
2015,06,07,03,29,13.90
2015,06,07,03,30,13.90
2015,06,07,03,31,13.80
2015,06,07,03,32,13.80
2015,06,07,03,33,13.80
2015,06,07,03,34,13.80
2015,06,07,03,35,13.70
2015,06,07,03,36,13.70
2015,06,07,03,37,13.70
2015,06,07,03,38,13.70
2015,06,07,03,39,13.70
2015,06,07,03,40,13.60
2015,06,07,03,41,13.60
2015,06,07,03,42,13.50
2015,06,07,03,43,13.50
2015,06,07,03,44,13.50
2015,06,07,03,45,13.50
2015,06,07,03,46,13.40
2015,06,07,03,47,13.40
2015,06,07,03,48,13.40
2015,06,07,03,49,13.40
2015,06,07,03,50,13.30
2015,06,07,03,51,13.30
2015,06,07,03,52,13.30
2015,06,07,03,53,13.30
2015,06,07,03,54,13.30
2015,06,07,03,55,13.30
2015,06,07,03,56,13.30
2015,06,07,03,57,13.20
2015,06,07,03,58,13.20
2015,06,07,03,59,13.20
2015,06,07,04,00,13.10
2015,06,07,04,01,13.10
2015,06,07,04,02,13.10
2015,06,07,04,03,13.10
2015,06,07,04,04,13.10
2015,06,07,04,05,13.10
2015,06,07,04,06,13.10
2015,06,07,04,07,13.10
2015,06,07,04,08,13.10
2015,06,07,04,09,13.10
2015,06,07,04,10,13.10
2015,06,07,04,11,13.10
2015,06,07,04,12,13.10
2015,06,07,04,13,13.10
2015,06,07,04,14,13.10
2015,06,07,04,15,13.10
2015,06,07,04,16,13.10
2015,06,07,04,17,13.10
2015,06,07,04,18,13.10
2015,06,07,04,19,13.10
2015,06,07,04,20,13.10
2015,06,07,04,21,13.10
2015,06,07,04,22,13.10
2015,06,07,04,23,13.10
2015,06,07,04,24,13.10
2015,06,07,04,25,13.20
2015,06,07,04,26,13.20
2015,06,07,04,27,13.20
2015,06,07,04,28,13.20
2015,06,07,04,29,13.20
2015,06,07,04,30,13.20
2015,06,07,04,31,13.20
2015,06,07,04,32,13.20
2015,06,07,04,33,13.20
2015,06,07,04,34,13.20
2015,06,07,04,35,13.10
2015,06,07,04,36,13.20
2015,06,07,04,37,13.20
2015,06,07,04,38,13.10
2015,06,07,04,39,13.10
2015,06,07,04,40,13.10
2015,06,07,04,41,13.10
2015,06,07,04,42,13.10
2015,06,07,04,43,13.10
2015,06,07,04,44,13.10
2015,06,07,04,45,13.10
2015,06,07,04,46,13.10
2015,06,07,04,47,13.10
2015,06,07,04,48,13.10
2015,06,07,04,49,13.10
2015,06,07,04,50,13.10
2015,06,07,04,51,13.10
2015,06,07,04,52,13.10
2015,06,07,04,53,13.10
2015,06,07,04,54,13.10
2015,06,07,04,55,13.10
2015,06,07,04,56,13.10
2015,06,07,04,57,13.10
2015,06,07,04,58,13.10
2015,06,07,04,59,13.10
2015,06,07,05,00,13.10
2015,06,07,05,01,13.10
2015,06,07,05,02,13.10
2015,06,07,05,03,13.10
2015,06,07,05,04,13.10
2015,06,07,05,05,13.10
2015,06,07,05,06,13.10
2015,06,07,05,07,13.10
2015,06,07,05,08,13.10
2015,06,07,05,09,13.10
2015,06,07,05,10,13.10
2015,06,07,05,11,13.10
2015,06,07,05,12,13.10
2015,06,07,05,13,13.20
2015,06,07,05,14,13.20
2015,06,07,05,15,13.20
2015,06,07,05,16,13.20
2015,06,07,05,17,13.20
2015,06,07,05,18,13.20
2015,06,07,05,19,13.20
2015,06,07,05,20,13.20
2015,06,07,05,21,13.20
2015,06,07,05,22,13.20
2015,06,07,05,23,13.20
2015,06,07,05,24,13.20
2015,06,07,05,25,13.20
2015,06,07,05,26,13.20
2015,06,07,05,27,13.20
2015,06,07,05,28,13.20
2015,06,07,05,29,13.20
2015,06,07,05,30,13.20
2015,06,07,05,31,13.30
2015,06,07,05,32,13.20
2015,06,07,05,33,13.20
2015,06,07,05,34,13.20
2015,06,07,05,35,13.20
2015,06,07,05,36,13.20
2015,06,07,05,37,13.20
2015,06,07,05,38,13.10
2015,06,07,05,39,13.10
2015,06,07,05,40,13.10
2015,06,07,05,41,13.10
2015,06,07,05,42,13.10
2015,06,07,05,43,13.10
2015,06,07,05,44,13.10
2015,06,07,05,45,13.10
2015,06,07,05,46,13.10
2015,06,07,05,47,13.10
2015,06,07,05,48,13.10
2015,06,07,05,49,13.10
2015,06,07,05,50,13.20
2015,06,07,05,51,13.20
2015,06,07,05,52,13.20
2015,06,07,05,53,13.20
2015,06,07,05,54,13.20
2015,06,07,05,55,13.30
2015,06,07,05,56,13.30
2015,06,07,05,57,13.30
2015,06,07,05,58,13.30
2015,06,07,05,59,13.40
2015,06,07,06,00,13.50
2015,06,07,06,01,13.50
2015,06,07,06,02,13.60
2015,06,07,06,03,13.70
2015,06,07,06,04,13.70
2015,06,07,06,05,13.70
2015,06,07,06,06,13.70
2015,06,07,06,07,13.80
2015,06,07,06,08,13.80
2015,06,07,06,09,13.90
2015,06,07,06,10,14.00
2015,06,07,06,11,14.10
2015,06,07,06,12,14.10
2015,06,07,06,13,14.20
2015,06,07,06,14,14.20
2015,06,07,06,15,14.30
2015,06,07,06,16,14.30
2015,06,07,06,17,14.30
2015,06,07,06,18,14.40
2015,06,07,06,19,14.40
2015,06,07,06,20,14.50
2015,06,07,06,21,14.50
2015,06,07,06,22,14.60
2015,06,07,06,23,14.60
2015,06,07,06,24,14.70
2015,06,07,06,25,14.70
2015,06,07,06,26,14.80
2015,06,07,06,27,14.80
2015,06,07,06,28,14.80
2015,06,07,06,29,14.90
2015,06,07,06,30,15.00
2015,06,07,06,31,15.10
2015,06,07,06,32,15.10
2015,06,07,06,33,15.20
2015,06,07,06,34,15.30
2015,06,07,06,35,15.30
2015,06,07,06,36,15.40
2015,06,07,06,37,15.40
2015,06,07,06,38,15.50
2015,06,07,06,39,15.60
2015,06,07,06,40,15.60
2015,06,07,06,41,15.70
2015,06,07,06,42,15.80
2015,06,07,06,43,15.90
2015,06,07,06,44,16.10
2015,06,07,06,45,16.20
2015,06,07,06,46,16.20
2015,06,07,06,47,16.30
2015,06,07,06,48,16.40
2015,06,07,06,49,16.40
2015,06,07,06,50,16.50
2015,06,07,06,51,16.70
2015,06,07,06,52,16.70
2015,06,07,06,53,16.80
2015,06,07,06,54,17.00
2015,06,07,06,55,17.00
2015,06,07,06,56,17.20
2015,06,07,06,57,17.30
2015,06,07,06,58,17.40
2015,06,07,06,59,17.50
2015,06,07,07,00,17.60
2015,06,07,07,01,17.70
2015,06,07,07,02,17.70
2015,06,07,07,03,17.80
2015,06,07,07,04,17.90
2015,06,07,07,05,18.00
2015,06,07,07,06,18.10
2015,06,07,07,07,18.20
2015,06,07,07,08,18.20
2015,06,07,07,09,18.20
2015,06,07,07,10,18.30
2015,06,07,07,11,18.30
2015,06,07,07,12,18.30
2015,06,07,07,13,18.30
2015,06,07,07,14,18.30
2015,06,07,07,15,18.40
2015,06,07,07,16,18.40
2015,06,07,07,17,18.40
2015,06,07,07,18,18.40
2015,06,07,07,19,18.50
2015,06,07,07,20,18.60
2015,06,07,07,21,18.60
2015,06,07,07,22,18.70
2015,06,07,07,23,18.70
2015,06,07,07,24,18.80
2015,06,07,07,25,18.90
2015,06,07,07,26,18.90
2015,06,07,07,27,18.90
2015,06,07,07,28,19.00
2015,06,07,07,29,19.10
2015,06,07,07,30,19.10
2015,06,07,07,31,19.10
2015,06,07,07,32,19.10
2015,06,07,07,33,19.10
2015,06,07,07,34,19.20
2015,06,07,07,35,19.20
2015,06,07,07,36,19.30
2015,06,07,07,37,19.40
2015,06,07,07,38,19.40
2015,06,07,07,39,19.40
2015,06,07,07,40,19.50
2015,06,07,07,41,19.50
2015,06,07,07,42,19.60
2015,06,07,07,43,19.70
2015,06,07,07,44,19.70
2015,06,07,07,45,19.70
2015,06,07,07,46,19.80
2015,06,07,07,47,19.80
2015,06,07,07,48,19.90
2015,06,07,07,49,19.90
2015,06,07,07,50,20.00
2015,06,07,07,51,20.20
2015,06,07,07,52,20.30
2015,06,07,07,53,20.40
2015,06,07,07,54,20.50
2015,06,07,07,55,20.60
2015,06,07,07,56,20.60
2015,06,07,07,57,20.70
2015,06,07,07,58,20.70
2015,06,07,07,59,20.80
2015,06,07,08,00,20.90
2015,06,07,08,01,20.90
2015,06,07,08,02,21.00
2015,06,07,08,03,21.00
2015,06,07,08,04,21.10
2015,06,07,08,05,21.10
2015,06,07,08,06,21.00
2015,06,07,08,07,21.00
2015,06,07,08,08,20.90
2015,06,07,08,09,20.90
2015,06,07,08,10,20.90
2015,06,07,08,11,20.90
2015,06,07,08,12,20.90
2015,06,07,08,13,20.90
2015,06,07,08,14,21.00
2015,06,07,08,15,21.00
2015,06,07,08,16,21.10
2015,06,07,08,17,21.10
2015,06,07,08,18,21.10
2015,06,07,08,19,21.10
2015,06,07,08,20,21.20
2015,06,07,08,21,21.20
2015,06,07,08,22,21.30
2015,06,07,08,23,21.30
2015,06,07,08,24,21.40
2015,06,07,08,25,21.40
2015,06,07,08,26,21.40
2015,06,07,08,27,21.40
2015,06,07,08,28,21.40
2015,06,07,08,29,21.40
2015,06,07,08,30,21.40
2015,06,07,08,31,21.50
2015,06,07,08,32,21.60
2015,06,07,08,33,21.60
2015,06,07,08,34,21.60
2015,06,07,08,35,21.60
2015,06,07,08,36,21.50
2015,06,07,08,37,21.30
2015,06,07,08,38,21.20
2015,06,07,08,39,21.20
2015,06,07,08,40,21.20
2015,06,07,08,41,21.20
2015,06,07,08,42,21.20
2015,06,07,08,43,21.20
2015,06,07,08,44,21.20
2015,06,07,08,45,21.20
2015,06,07,08,46,21.20
2015,06,07,08,47,21.20
2015,06,07,08,48,21.20
2015,06,07,08,49,21.20
2015,06,07,08,50,21.20
2015,06,07,08,51,21.10
2015,06,07,08,52,21.10
2015,06,07,08,53,21.10
2015,06,07,08,54,21.10
2015,06,07,08,55,21.10
2015,06,07,08,56,21.20
2015,06,07,08,57,21.20
2015,06,07,08,58,21.20
2015,06,07,08,59,21.20
2015,06,07,09,00,21.20
2015,06,07,09,01,21.20
2015,06,07,09,02,21.10
2015,06,07,09,03,21.10
2015,06,07,09,04,21.00
2015,06,07,09,05,20.90
2015,06,07,09,06,20.90
2015,06,07,09,07,20.80
2015,06,07,09,08,20.70
2015,06,07,09,09,20.70
2015,06,07,09,10,20.60
2015,06,07,09,11,20.50
2015,06,07,09,12,20.30
2015,06,07,09,13,20.20
2015,06,07,09,14,20.20
2015,06,07,09,15,20.20
2015,06,07,09,16,20.20
2015,06,07,09,17,20.20
2015,06,07,09,18,20.20
2015,06,07,09,19,20.10
2015,06,07,09,20,20.00
2015,06,07,09,21,19.90
2015,06,07,09,22,19.90
2015,06,07,09,23,19.90
2015,06,07,09,24,19.80
2015,06,07,09,25,19.80
2015,06,07,09,26,19.80
2015,06,07,09,27,19.80
2015,06,07,09,28,19.80
2015,06,07,09,29,19.80
2015,06,07,09,30,19.80
2015,06,07,09,31,19.80
2015,06,07,09,32,19.90
2015,06,07,09,33,19.90
2015,06,07,09,34,19.90
2015,06,07,09,35,20.00
2015,06,07,09,36,20.10
2015,06,07,09,37,20.20
2015,06,07,09,38,20.20
2015,06,07,09,39,20.30
2015,06,07,09,40,20.40
2015,06,07,09,41,20.50
2015,06,07,09,42,20.50
2015,06,07,09,43,20.50
2015,06,07,09,44,20.60
2015,06,07,09,45,20.60
2015,06,07,09,46,20.50
2015,06,07,09,47,20.50
2015,06,07,09,48,20.50
2015,06,07,09,49,20.50
2015,06,07,09,50,20.50
2015,06,07,09,51,20.50
2015,06,07,09,52,20.50
2015,06,07,09,53,20.40
2015,06,07,09,54,20.40
2015,06,07,09,55,20.40
2015,06,07,09,56,20.40
2015,06,07,09,57,20.50
2015,06,07,09,58,20.50
2015,06,07,09,59,20.60
2015,06,07,10,00,20.70
2015,06,07,10,01,20.70
2015,06,07,10,02,20.80
2015,06,07,10,03,20.90
2015,06,07,10,04,21.00
2015,06,07,10,05,21.00
2015,06,07,10,06,21.00
2015,06,07,10,07,21.00
2015,06,07,10,08,21.00
2015,06,07,10,09,21.00
2015,06,07,10,10,20.90
2015,06,07,10,11,20.90
2015,06,07,10,12,20.90
2015,06,07,10,13,20.70
2015,06,07,10,14,20.70
2015,06,07,10,15,20.80
2015,06,07,10,16,20.80
2015,06,07,10,17,20.70
2015,06,07,10,18,20.70
2015,06,07,10,19,20.50
2015,06,07,10,20,20.50
2015,06,07,10,21,20.50
2015,06,07,10,22,20.50
2015,06,07,10,23,20.50
2015,06,07,10,24,20.50
2015,06,07,10,25,20.50
2015,06,07,10,26,20.50
2015,06,07,10,27,20.60
2015,06,07,10,28,20.70
2015,06,07,10,29,20.80
2015,06,07,10,30,20.80
2015,06,07,10,31,20.80
2015,06,07,10,32,20.70
2015,06,07,10,33,20.70
2015,06,07,10,34,20.70
2015,06,07,10,35,20.60
2015,06,07,10,36,20.60
2015,06,07,10,37,20.60
2015,06,07,10,38,20.70
2015,06,07,10,39,20.70
2015,06,07,10,40,20.80
2015,06,07,10,41,20.80
2015,06,07,10,42,20.70
2015,06,07,10,43,20.70
2015,06,07,10,44,20.60
2015,06,07,10,45,20.60
2015,06,07,10,46,20.60
2015,06,07,10,47,20.40
2015,06,07,10,48,20.20
2015,06,07,10,49,20.20
2015,06,07,10,50,20.20
2015,06,07,10,51,20.20
2015,06,07,10,52,20.10
2015,06,07,10,53,20.20
2015,06,07,10,54,20.20
2015,06,07,10,55,20.20
2015,06,07,10,56,20.20
2015,06,07,10,57,20.20
2015,06,07,10,58,20.20
2015,06,07,10,59,20.30
2015,06,07,11,00,20.40
2015,06,07,11,01,20.40
2015,06,07,11,02,20.50
2015,06,07,11,03,20.40
2015,06,07,11,04,20.40
2015,06,07,11,05,20.40
2015,06,07,11,06,20.50
2015,06,07,11,07,20.50
2015,06,07,11,08,20.70
2015,06,07,11,09,20.80
2015,06,07,11,10,20.90
2015,06,07,11,11,21.00
2015,06,07,11,12,21.10
2015,06,07,11,13,21.10
2015,06,07,11,14,21.00
2015,06,07,11,15,20.80
2015,06,07,11,16,20.80
2015,06,07,11,17,20.80
2015,06,07,11,18,20.80
2015,06,07,11,19,20.90
2015,06,07,11,20,20.90
2015,06,07,11,21,21.00
2015,06,07,11,22,21.10
2015,06,07,11,23,21.30
2015,06,07,11,24,21.40
2015,06,07,11,25,21.60
2015,06,07,11,26,21.60
2015,06,07,11,27,21.60
2015,06,07,11,28,21.60
2015,06,07,11,29,21.70
2015,06,07,11,30,21.70
2015,06,07,11,31,21.80
2015,06,07,11,32,21.90
2015,06,07,11,33,22.00
2015,06,07,11,34,22.00
2015,06,07,11,35,22.00
2015,06,07,11,36,22.00
2015,06,07,11,37,21.90
2015,06,07,11,38,21.80
2015,06,07,11,39,21.80
2015,06,07,11,40,21.80
2015,06,07,11,41,21.90
2015,06,07,11,42,22.00
2015,06,07,11,43,22.10
2015,06,07,11,44,22.30
2015,06,07,11,45,22.40
2015,06,07,11,46,22.50
2015,06,07,11,47,22.60
2015,06,07,11,48,22.70
2015,06,07,11,49,22.80
2015,06,07,11,50,22.90
2015,06,07,11,51,22.90
2015,06,07,11,52,22.90
2015,06,07,11,53,23.10
2015,06,07,11,54,23.10
2015,06,07,11,55,23.10
2015,06,07,11,56,23.10
2015,06,07,11,57,23.10
2015,06,07,11,58,23.20
2015,06,07,11,59,23.30
2015,06,07,12,00,23.30
2015,06,07,12,01,23.30
2015,06,07,12,02,23.30
2015,06,07,12,03,23.30
2015,06,07,12,04,23.30
2015,06,07,12,05,23.30
2015,06,07,12,06,23.30
2015,06,07,12,07,23.40
2015,06,07,12,08,23.50
2015,06,07,12,09,23.60
2015,06,07,12,10,23.60
2015,06,07,12,11,23.70
2015,06,07,12,12,23.70
2015,06,07,12,13,23.70
2015,06,07,12,14,23.80
2015,06,07,12,15,23.80
2015,06,07,12,16,23.80
2015,06,07,12,17,23.80
2015,06,07,12,18,23.80
2015,06,07,12,19,23.70
2015,06,07,12,20,23.70
2015,06,07,12,21,23.70
2015,06,07,12,22,23.70
2015,06,07,12,23,23.70
2015,06,07,12,24,23.70
2015,06,07,12,25,23.70
2015,06,07,12,26,23.70
2015,06,07,12,27,23.50
2015,06,07,12,28,23.30
2015,06,07,12,29,23.30
2015,06,07,12,30,23.40
2015,06,07,12,31,23.40
2015,06,07,12,32,23.50
2015,06,07,12,33,23.70
2015,06,07,12,34,23.80
2015,06,07,12,35,23.90
2015,06,07,12,36,24.00
2015,06,07,12,37,24.10
2015,06,07,12,38,24.20
2015,06,07,12,39,24.30
2015,06,07,12,40,24.30
2015,06,07,12,41,24.40
2015,06,07,12,42,24.40
2015,06,07,12,43,24.50
2015,06,07,12,44,24.40
2015,06,07,12,45,24.30
2015,06,07,12,46,24.20
2015,06,07,12,47,24.10
2015,06,07,12,48,24.20
2015,06,07,12,49,24.20
2015,06,07,12,50,24.30
2015,06,07,12,51,24.40
2015,06,07,12,52,24.40
2015,06,07,12,53,24.40
2015,06,07,12,54,24.40
2015,06,07,12,55,24.30
2015,06,07,12,56,24.20
2015,06,07,12,57,24.20
2015,06,07,12,58,24.10
2015,06,07,12,59,24.10
2015,06,07,13,00,24.10
2015,06,07,13,01,24.20
2015,06,07,13,02,24.30
2015,06,07,13,03,24.40
2015,06,07,13,04,24.50
2015,06,07,13,05,24.50
2015,06,07,13,06,24.30
2015,06,07,13,07,24.20
2015,06,07,13,08,24.10
2015,06,07,13,09,24.00
2015,06,07,13,10,23.90
2015,06,07,13,11,24.00
2015,06,07,13,12,23.90
2015,06,07,13,13,23.90
2015,06,07,13,14,23.80
2015,06,07,13,15,23.70
2015,06,07,13,16,23.70
2015,06,07,13,17,23.80
2015,06,07,13,18,23.80
2015,06,07,13,19,23.90
2015,06,07,13,20,23.90
2015,06,07,13,21,23.90
2015,06,07,13,22,23.90
2015,06,07,13,23,23.80
2015,06,07,13,24,23.70
2015,06,07,13,25,23.70
2015,06,07,13,26,23.70
2015,06,07,13,27,23.70
2015,06,07,13,28,23.60
2015,06,07,13,29,23.40
2015,06,07,13,30,23.30
2015,06,07,13,31,23.30
2015,06,07,13,32,23.40
2015,06,07,13,33,23.50
2015,06,07,13,34,23.70
2015,06,07,13,35,23.70
2015,06,07,13,36,23.70
2015,06,07,13,37,23.80
2015,06,07,13,38,23.80
2015,06,07,13,39,23.90
2015,06,07,13,40,23.90
2015,06,07,13,41,24.10
2015,06,07,13,42,24.10
2015,06,07,13,43,24.10
2015,06,07,13,44,24.10
2015,06,07,13,45,24.00
2015,06,07,13,46,23.90
2015,06,07,13,47,23.90
2015,06,07,13,48,23.90
2015,06,07,13,49,23.90
2015,06,07,13,50,23.90
2015,06,07,13,51,23.90
2015,06,07,13,52,23.90
2015,06,07,13,53,23.90
2015,06,07,13,54,23.90
2015,06,07,13,55,23.90
2015,06,07,13,56,23.90
2015,06,07,13,57,24.10
2015,06,07,13,58,24.10
2015,06,07,13,59,24.10
2015,06,07,14,00,24.10
2015,06,07,14,01,24.10
2015,06,07,14,02,24.10
2015,06,07,14,03,24.10
2015,06,07,14,04,24.20
2015,06,07,14,05,24.20
2015,06,07,14,06,24.20
2015,06,07,14,07,24.10
2015,06,07,14,08,24.10
2015,06,07,14,09,24.10
2015,06,07,14,10,24.10
2015,06,07,14,11,24.00
2015,06,07,14,12,23.90
2015,06,07,14,13,23.70
2015,06,07,14,14,23.60
2015,06,07,14,15,23.60
2015,06,07,14,16,23.50
2015,06,07,14,17,23.50
2015,06,07,14,18,23.60
2015,06,07,14,19,23.60
2015,06,07,14,20,23.70
2015,06,07,14,21,23.70
2015,06,07,14,22,23.90
2015,06,07,14,23,23.90
2015,06,07,14,24,24.00
2015,06,07,14,25,24.10
2015,06,07,14,26,24.10
2015,06,07,14,27,24.10
2015,06,07,14,28,24.10
2015,06,07,14,29,24.10
2015,06,07,14,30,24.00
2015,06,07,14,31,23.90
2015,06,07,14,32,23.90
2015,06,07,14,33,23.90
2015,06,07,14,34,24.10
2015,06,07,14,35,24.10
2015,06,07,14,36,24.10
2015,06,07,14,37,24.20
2015,06,07,14,38,24.20
2015,06,07,14,39,24.20
2015,06,07,14,40,24.20
2015,06,07,14,41,24.20
2015,06,07,14,42,24.20
2015,06,07,14,43,24.20
2015,06,07,14,44,24.30
2015,06,07,14,45,24.30
2015,06,07,14,46,24.40
2015,06,07,14,47,24.50
2015,06,07,14,48,24.60
2015,06,07,14,49,24.70
2015,06,07,14,50,24.80
2015,06,07,14,51,24.80
2015,06,07,14,52,24.70
2015,06,07,14,53,24.70
2015,06,07,14,54,24.80
2015,06,07,14,55,24.70
2015,06,07,14,56,24.60
2015,06,07,14,57,24.50
2015,06,07,14,58,24.50
2015,06,07,14,59,24.40
2015,06,07,15,00,24.30
2015,06,07,15,01,24.20
2015,06,07,15,02,24.20
2015,06,07,15,03,24.10
2015,06,07,15,04,24.10
2015,06,07,15,05,23.90
2015,06,07,15,06,23.70
2015,06,07,15,07,23.40
2015,06,07,15,08,23.30
2015,06,07,15,09,23.30
2015,06,07,15,10,23.30
2015,06,07,15,11,23.30
2015,06,07,15,12,23.30
2015,06,07,15,13,23.20
2015,06,07,15,14,23.20
2015,06,07,15,15,23.20
2015,06,07,15,16,23.20
2015,06,07,15,17,23.10
2015,06,07,15,18,23.00
2015,06,07,15,19,23.00
2015,06,07,15,20,23.10
2015,06,07,15,21,23.20
2015,06,07,15,22,23.30
2015,06,07,15,23,23.40
2015,06,07,15,24,23.50
2015,06,07,15,25,23.60
2015,06,07,15,26,23.60
2015,06,07,15,27,23.40
2015,06,07,15,28,23.30
2015,06,07,15,29,23.00
2015,06,07,15,30,22.90
2015,06,07,15,31,22.80
2015,06,07,15,32,22.80
2015,06,07,15,33,22.70
2015,06,07,15,34,22.60
2015,06,07,15,35,22.70
2015,06,07,15,36,22.70
2015,06,07,15,37,22.80
2015,06,07,15,38,22.90
2015,06,07,15,39,22.90
2015,06,07,15,40,22.90
2015,06,07,15,41,23.00
2015,06,07,15,42,22.90
2015,06,07,15,43,22.90
2015,06,07,15,44,22.90
2015,06,07,15,45,22.90
2015,06,07,15,46,22.90
2015,06,07,15,47,22.90
2015,06,07,15,48,22.90
2015,06,07,15,49,22.90
2015,06,07,15,50,22.90
2015,06,07,15,51,22.90
2015,06,07,15,52,22.90
2015,06,07,15,53,22.90
2015,06,07,15,54,22.90
2015,06,07,15,55,22.90
2015,06,07,15,56,22.90
2015,06,07,15,57,22.90
2015,06,07,15,58,22.80
2015,06,07,15,59,22.60
2015,06,07,16,00,22.50
2015,06,07,16,01,22.40
2015,06,07,16,02,22.30
2015,06,07,16,03,22.30
2015,06,07,16,04,22.30
2015,06,07,16,05,22.40
2015,06,07,16,06,22.40
2015,06,07,16,07,22.40
2015,06,07,16,08,22.30
2015,06,07,16,09,22.30
2015,06,07,16,10,22.40
2015,06,07,16,11,22.40
2015,06,07,16,12,22.40
2015,06,07,16,13,22.30
2015,06,07,16,14,22.30
2015,06,07,16,15,22.30
2015,06,07,16,16,22.10
2015,06,07,16,17,22.00
2015,06,07,16,18,22.00
2015,06,07,16,19,21.90
2015,06,07,16,20,21.90
2015,06,07,16,21,22.00
2015,06,07,16,22,22.00
2015,06,07,16,23,22.10
2015,06,07,16,24,22.20
2015,06,07,16,25,22.30
2015,06,07,16,26,22.40
2015,06,07,16,27,22.50
2015,06,07,16,28,22.60
2015,06,07,16,29,22.70
2015,06,07,16,30,22.80
2015,06,07,16,31,22.80
2015,06,07,16,32,22.90
2015,06,07,16,33,22.90
2015,06,07,16,34,22.90
2015,06,07,16,35,23.00
2015,06,07,16,36,23.10
2015,06,07,16,37,23.20
2015,06,07,16,38,23.30
2015,06,07,16,39,23.30
2015,06,07,16,40,23.30
2015,06,07,16,41,23.30
2015,06,07,16,42,23.30
2015,06,07,16,43,23.30
2015,06,07,16,44,23.40
2015,06,07,16,45,23.30
2015,06,07,16,46,23.30
2015,06,07,16,47,23.20
2015,06,07,16,48,23.20
2015,06,07,16,49,23.20
2015,06,07,16,50,23.10
2015,06,07,16,51,23.00
2015,06,07,16,52,22.90
2015,06,07,16,53,22.90
2015,06,07,16,54,22.90
2015,06,07,16,55,22.90
2015,06,07,16,56,22.80
2015,06,07,16,57,22.80
2015,06,07,16,58,22.70
2015,06,07,16,59,22.70
2015,06,07,17,00,22.60
2015,06,07,17,01,22.60
2015,06,07,17,02,22.60
2015,06,07,17,03,22.60
2015,06,07,17,04,22.60
2015,06,07,17,05,22.60
2015,06,07,17,06,22.60
2015,06,07,17,07,22.50
2015,06,07,17,08,22.40
2015,06,07,17,09,22.40
2015,06,07,17,10,22.40
2015,06,07,17,11,22.30
2015,06,07,17,12,22.30
2015,06,07,17,13,22.20
2015,06,07,17,14,22.20
2015,06,07,17,15,22.20
2015,06,07,17,16,22.10
2015,06,07,17,17,22.10
2015,06,07,17,18,22.00
2015,06,07,17,19,22.00
2015,06,07,17,20,22.00
2015,06,07,17,21,22.10